DECAYED

IRIDIUM 33 DEB, 38469 (Decayed)

Orbit data source: Space-Track

IRIDIUM 33 DEB, 38469 was space debris in LEO originally from a launch on Sun, 14 Sep 1997 UTC launched from the Tyuratam Missile And Space Complex (TTMTR). The debris from Iridium 33, an American commercial communications satellite, has been tracked extensively since its accidental collision with the defunct Russian satellite Cosmos 2251 in 2009. This event, occurring at high speed in low Earth orbit (LEO), generated thousands of pieces of space debris, significantly increasing the risk of further collisions. The Iridium 33 debris cloud has impacted space traffic management and orbital debris mitigation strategies, making it a subject of ongoing study in space situational awareness.

Not visible in the next 10 days
Identifier
38469, 1997-051ZW
Orbit
Decayed
Country
Flag of USUS
Related business
Manufacturer
Unknown
Mission
Decayed spacecraft
Bus & Motor
Unknown
Mass
Unknown
Launch date (UTC)
1997-09-14 (28 years ago)
Launch vehicle
Unknown
Launch site
Tyuratam Missile And Space Complex (TTMTR)
Object type
Payload
Rocket body
Debris
Shape & HBR
Unknown shape, 0.1 m
Radar Cross Section
Small (<0.1 m²)

Expand to show TLE details & history
Last TLE update: 11 months ago

TLE from 11 months ago
0 IRIDIUM 33 DEB
1 38469U 97051ZW  25014.30657486  .00825077  00000-0  23106-1 0  9995
2 38469  86.2159 219.8694 0027093  67.6791 292.7327 15.33903710563434
Epoch: 2025-01-14T07:21Z
TLE epoch observation values (Epoch: 2025-01-14T07:21:28.067Z)
Latitude
-0.00007°
Longitude
-4.51271°
Altitude
460.245 km
Speed
7.64 km/s
True Right ascension
14h 39m 28s
True Declination
0° 00' 00"
Sunlit
Object was in daylight at epoch
Visualization orbit readout
Latitude
Unknown
Longitude
Unknown
Altitude
Unknown
Speed
Unknown
Apparent Right ascension
Unknown
Apparent Declination
Unknown
Sunlit
N/A
Visualization observer readout
Local Sidereal Time
16:17:28
Azimuth
Unknown
Elevation
Unknown
Doppler factor
Unknown
Orbital elements
Apogee altitude
479.537 km
Perigee altitude
442.478 km
Semi-major axis
6,839.145 km
Eccentricity
0.00271
Inclination
86.2159°
RAAN
219.8694°
Arg. of periapsis
67.6791°
True anomaly
292.44598°
Mean anomaly
292.7327°
Eccentric anomaly
292.58938°
Mean motion
3.83743 °/min
Orbital period
93.81 mins
BSTAR
0.023106
Loading maneuver chart data...
Computing Atmospheric mass density...
Loading historical data...
Loading historical data...
Loading historical data...
Loading historical data...
Loading historical data...
Loading historical data...
Loading historical data...

Documentation

Showing up to 5 results
|